Year,Month,Day,Hour,Minute,Value (Times are PST for temperature in C)
2014,04,18,08,39,8.30
2014,04,18,08,44,8.30
2014,04,18,08,49,8.40
2014,04,18,08,54,8.60
2014,04,18,08,59,8.60
2014,04,18,09,04,8.70
2014,04,18,09,09,8.80
2014,04,18,09,14,8.80
2014,04,18,09,19,8.80
2014,04,18,09,24,9.00
2014,04,18,09,29,9.10
2014,04,18,09,34,9.30
2014,04,18,09,39,9.30
2014,04,18,09,44,9.30
2014,04,18,09,49,9.30
2014,04,18,09,54,9.40
2014,04,18,09,59,9.50
2014,04,18,10,04,9.60
2014,04,18,10,09,9.60
2014,04,18,10,14,9.80
2014,04,18,10,19,9.70
2014,04,18,10,24,9.70
2014,04,18,10,29,9.90
2014,04,18,10,34,10.10
2014,04,18,10,39,10.20
2014,04,18,10,44,10.10
2014,04,18,10,49,10.10
2014,04,18,10,54,10.20
2014,04,18,10,59,10.40
2014,04,18,11,04,10.30
2014,04,18,11,09,10.20
2014,04,18,11,14,10.10
2014,04,18,11,19,10.20
2014,04,18,11,24,10.10
2014,04,18,11,29,9.80
2014,04,18,11,34,9.90
2014,04,18,11,39,10.40
2014,04,18,11,44,10.60
2014,04,18,11,49,10.90
2014,04,18,11,54,11.00
2014,04,18,11,59,11.10
2014,04,18,12,04,11.10
2014,04,18,12,09,11.10
2014,04,18,12,14,11.20
2014,04,18,12,19,11.40
2014,04,18,12,24,11.40
2014,04,18,12,29,11.40
2014,04,18,12,34,11.60
2014,04,18,12,39,11.70
2014,04,18,12,44,11.90
2014,04,18,12,49,12.20
2014,04,18,12,54,12.30
2014,04,18,12,59,12.30
2014,04,18,13,04,12.00
2014,04,18,13,09,11.70
2014,04,18,13,14,11.80
2014,04,18,13,19,12.10
2014,04,18,13,24,12.20
2014,04,18,13,29,12.20
2014,04,18,13,32,12.50
2014,04,18,16,09,13.40
2014,04,18,16,14,13.30
2014,04,18,16,19,13.20
2014,04,18,16,24,13.30
2014,04,18,16,29,13.40
2014,04,18,16,34,13.40
2014,04,18,16,39,13.40
2014,04,18,16,44,13.10
2014,04,18,16,49,13.20
2014,04,18,16,54,13.10
2014,04,18,16,59,12.90
2014,04,18,17,04,12.80
2014,04,18,17,09,12.80
2014,04,18,17,14,12.70
2014,04,18,17,19,12.70
2014,04,18,21,04,9.20
2014,04,18,21,09,9.10
2014,04,18,21,14,9.10
2014,04,18,21,19,8.90
2014,04,18,21,24,8.90
2014,04,18,21,29,8.90
2014,04,18,21,34,8.90
2014,04,18,21,39,8.90
2014,04,18,21,44,8.90
2014,04,18,21,49,8.90
2014,04,18,21,54,8.90
2014,04,18,21,59,8.90
2014,04,18,22,04,8.90
2014,04,18,22,09,8.90
2014,04,18,22,14,8.90
2014,04,18,22,19,8.90
2014,04,18,22,24,9.00
2014,04,18,22,29,9.10
2014,04,18,22,34,9.10
2014,04,18,22,39,9.20
2014,04,18,22,44,9.30
2014,04,18,22,49,9.30
2014,04,18,22,54,9.30
2014,04,18,22,59,9.20
2014,04,18,23,04,9.20
2014,04,18,23,09,9.20
2014,04,18,23,14,9.20
2014,04,18,23,19,9.10
2014,04,18,23,24,9.10
2014,04,18,23,29,9.10
2014,04,18,23,34,8.90
2014,04,18,23,39,8.90
2014,04,18,23,44,8.90
2014,04,18,23,49,8.80
2014,04,18,23,54,8.80
2014,04,18,23,59,8.80
